Regional Weather Roundup
Issued by NWS Burlington, VT

Current Version | Previous Version | Graphics & Text | Print | Product List | Glossary On
Versions: 1 2 3 4 5 6 7 8 9 10 11 12 13 14 15 16 17 18 19 20 21 22 23 24 25 26 27 28 29 30 31 32 33 34 35 36 37 38 39 40 41 42 43 44 45 46 47 48 49 50
000
ASUS41 KBTV 261010
RWRBTV
VERMONT REGIONAL WEATHER ROUNDUP
NATIONAL WEATHER SERVICE BURLINGTON VT
600 AM EDT SUN JUN 26 2022

NOTE: "FAIR" INDICATES FEW OR NO CLOUDS BELOW 12,000 FEET WITH NO
SIGNIFICANT WEATHER AND/OR OBSTRUCTIONS TO VISIBILITY.

* THESE REPORTS ARE NOT UNDER NWS QUALITY CONTROL AND/OR DO NOT
  REPORT WEATHER SUCH AS PRECIPITATION AND FOG.

VTZ001>019-261100-
_____VERMONT_____


CITY           SKY/WX    TMP DP  RH WIND       PRES   REMARKS
BURLINGTON     PTCLDY    66  62  87 CALM      30.08R
MONTPELIER     CLEAR     60  56  86 CALM      30.17S
MORRISVILLE    MOCLDY    57  55  93 SW3       30.13R FOG
ST. JOHNSBURY*   N/A     58  56  93 MISG      30.13R
LYNDONVILLE*   FAIR      57  56  97 CALM      30.16S FOG
MIDDLEBURY*    FAIR      60  60 100 CALM      30.10S
RUTLAND*       CLEAR     60  58  92 SE7       30.13R
SPRINGFIELD    CLEAR     58  56  93 CALM      30.14S
HIGHGATE*      FAIR      65  64  96 SE5       30.06S
NEWPORT*       FAIR      59  57  92 S5        30.13S
BENNINGTON     CLEAR     57  55  93 N3        30.12S
LAKE EDEN*       N/A     57 N/A N/A CALM        N/A

_____LAKE CHAMPLAIN_____


CITY           SKY/WX    TMP DP  RH WIND       PRES   REMARKS
COLCHESTER RF*   N/A     59  57  94 S10         N/A

$$

NYZ007-026>031-035-052-083-087-261100-
_____NORTHERN NEW YORK_____


CITY           SKY/WX    TMP DP  RH WIND       PRES   REMARKS
PLATTSBURGH    CLEAR     60  59  96 CALM      30.06S FOG
SARANAC LAKE   MOCLDY    51  51 100 CALM      30.11S FOG
MASSENA        CLEAR     61  59  93 NE3       30.03F
OGDENSBURG*    FAIR      63  61  94 CALM      29.99R
POTSDAM*       CLEAR     70  61  73 S7G14     30.02F
WATERTOWN      CLEAR     73  58  59 S6        30.01R
FT DRUM        CLEAR     66  59  78 SE13      30.03R
ALBANY         PTCLDY    63  60  90 CALM      30.11R
GLENS FALLS    PTCLDY    57  56  96 CALM      30.10S FOG

$$
NHZ002-005-011-261100-
_____NEW HAMPSHIRE_____


CITY           SKY/WX    TMP DP  RH WIND       PRES   REMARKS
LEBANON        PTCLDY    60  56  86 CALM      30.13R
KEENE          CLEAR     58  58 100 S3          N/A
MT WASHINGTON  MOCLDY    54  48  82 W10         N/A
PLYMOUTH       FOG       56  56  97 CALM      30.14R VSB 1
WHITEFIELD     CLEAR     53  52  96 CALM      30.15S

$$

_____REGIONAL QUEBEC LOCATIONS_____


CITY           SKY/WX    TMP DP  RH WIND       PRES   REMARKS
MONTREAL       PTCLDY    70  66  88 E6        30.02F
QUEBEC CITY    MOCLDY    59  50  72 N6        30.10S
SHERBROOKE     CLEAR     59  57  94 E5        30.11S

_____REGIONAL ONTARIO LOCATIONS_____


CITY           SKY/WX    TMP DP  RH WIND       PRES   REMARKS
OTTAWA         MOCLDY    64  61  88 E8        30.00S

______KEY______
VSB  - VISIBILITY IN MILES
WCI  - WIND CHILL INDEX
HX   - HEAT INDEX
$$
NNNN



USA.gov is the U.S. government's official web portal to all federal, state and local government web resources and services.